Location: Chappes
(46.3878°N, 2.9266°E)
Time: 06:02:44
(UTC+00:00)

Daily predictions for brighter satellites

Satellite Brightness Start Highest point End
(mag) Time Altitude Azimuth Time Altitude Azimuth Time Altitude Azimuth
Cosmos 407 Rocket 3.5 19:17:32 10° SSW 19:22:50 80° ESE 19:28:08 10° NNE
SJ-6B 2.9 19:22:13 10° SSE 19:26:13 69° ENE 19:30:08 10° N
Cosmos 1862 3.6 19:22:58 10° SSW 19:27:01 77° W 19:31:06 10° N
Cosmos 1190 Rocket 4.0 19:21:49 10° SSW 19:27:03 72° ESE 19:32:22 10° NNE
deb Kosmos-1763 4.1 19:24:48 10° S 19:28:21 57° ESE 19:31:58 10° NNE
Cosmos 1140 Rocket 3.5 19:23:40 10° SSW 19:28:53 71° ESE 19:34:08 10° NNE
FALCON 9 DEB 4.2 19:26:01 10° W 19:29:25 49° NNW 19:32:51 10° NE
Cosmos 1023 Rocket 4.5 19:25:04 10° SSW 19:30:19 75° ESE 19:35:36 10° NNE
Resurs 1-3 4.1 19:27:14 10° SE 19:31:22 42° ENE 19:35:31 10° N
OBJECT-B 1.4 19:30:48 10° SE 19:33:55 40° ENE 19:37:02 10° N
Cosmos 1441 Rocket 3.5 19:30:29 10° SSW 19:34:13 72° WNW 19:37:58 10° N
IRIDIUM 106 4.3 19:29:28 10° S 19:34:40 80° E 19:39:55 10° N
Cosmos 1633 Rocket 3.4 19:32:45 10° SSE 19:36:57 45° E 19:41:11 10° NNE
Cosmos 1184 Rocket 3.6 19:34:53 10° SSE 19:37:49 30° E 19:40:46 10° NNE
SL-08 RB Rocket 4.1 19:34:32 10° S 19:39:10 70° W 19:43:50 10° NNW
Cosmos 921 Rocket 3.5 19:37:05 10° N 19:41:04 40° ENE 19:45:00 10° SE
Cosmos 2123 Rocket 4.2 19:36:22 10° N 19:42:30 56° ENE 19:48:39 10° SSE
Cosmos 2239 Rocket 4.5 19:36:45 10° S 19:42:51 75° E 19:49:02 10° NNE
Meteor 1-27 Rocket 3.9 19:41:52 10° NNW 19:47:51 87° W 19:53:47 10° S
Cosmos 1605 Rocket 4.4 19:46:18 10° SSE 19:51:54 40° E 19:57:31 10° NNE
ARGOS 4.4 19:48:09 10° S 19:53:14 43° W 19:58:21 10° NNW
Cosmos 1707 Rocket 3.7 19:49:30 10° NNW 19:53:51 75° W 19:58:09 10° S
CZ-2C R/B 2.6 19:49:32 10° NNE 19:54:46 89° ESE 20:00:02 10° SSW
NOSS 3-2 (A) 3.3 19:49:46 10° SSW 19:55:24 73° SE 20:01:52 10° NE
Cosmos 192 4.3 19:51:31 10° NNW 19:56:28 86° ENE 20:01:23 10° SSE
USA 267 4.0 19:53:28 10° ENE 19:58:51 27° SE 20:04:11 10° S
SL-16 R/B 2.9 19:56:45 10° NNW 20:02:08 41° NE 20:06:27 15° ESE
SL-4 R/B 3.0 19:58:26 10° W 20:02:20 42° NNW 20:05:55 10° ENE
MONITOR-E 4.4 20:01:01 10° S 20:03:17 46° W 20:05:35 10° NNW
BREEZE-M DEB (TANK) 2.6 20:00:55 10° W 20:03:24 61° N 20:08:58 10° ENE
BREEZE-M DEB (TANK) 4.2 20:00:15 10° WNW 20:03:56 18° WSW 20:06:11 10° SSW
SL-27 R/B 3.7 20:04:28 18° ESE 20:05:16 19° E 20:07:43 10° NE
NOSS 3-2 (C) 3.4 20:00:38 10° SSW 20:06:08 54° ESE 20:12:23 10° NE
Cosmos 2242 Rocket 4.3 20:02:08 10° N 20:06:13 36° ENE 20:09:08 17° SE
Cosmos 1470 Rocket 3.7 20:02:29 10° S 20:06:45 52° E 20:11:01 10° NNE
Sich 1 4.2 20:03:20 10° SSW 20:07:37 47° WNW 20:11:56 10° N
Cosmos 2082 Rocket 2.8 20:05:09 10° SW 20:10:47 63° WNW 20:16:26 10° NNE
BREEZE-M DEB (TANK) 2.8 20:08:05 10° WNW 20:11:01 42° N 20:12:31 14° ENE
USA 186 4.2 20:11:27 10° WSW 20:12:14 11° W 20:13:01 10° WNW
Meteor 2-20 Rocket 4.4 20:09:03 10° N 20:15:15 85° E 20:21:24 10° S
Meteor 1-4 Rocket 3.5 20:14:31 10° NNW 20:17:50 44° W 20:21:08 10° S
ERS-1 Rocket 4.2 20:16:14 17° ESE 20:18:57 26° ENE 20:23:04 10° N
Cosmos 2322 Rocket 2.7 20:14:01 10° NNW 20:19:31 46° ENE 20:23:14 20° ESE
Cosmos 1862 Rocket 3.7 20:17:13 10° NNW 20:21:40 79° W 20:25:58 10° S
Cosmos 1850 Rocket 4.1 20:18:14 10° S 20:23:22 52° ESE 20:28:29 10° NNE
Meteor 1-25 Rocket 4.1 20:19:44 10° S 20:25:16 75° E 20:30:56 10° NNE
SPOT 1/Viking Rocket 4.1 20:23:32 20° SE 20:26:45 44° ENE 20:31:41 10° N
Cosmos 841 Rocket 4.2 20:22:10 10° N 20:27:04 38° ENE 20:29:56 22° ESE
USA 32 4.0 20:22:48 10° S 20:28:01 79° E 20:33:15 10° N
Cosmos 2360 Rocket 3.3 20:23:29 10° NNW 20:28:31 32° NE 20:31:48 18° ESE
USA 276 2.1 20:25:38 10° WNW 20:28:49 76° NNE 20:30:10 31° E
X-37B 1.0 20:26:22 10° W 20:29:26 47° SSW 20:30:22 34° SE
Terra 3.4 20:27:56 16° E 20:29:53 20° ENE 20:33:20 10° NNE
Meteor 1-18 Rocket 4.2 20:24:25 10° N 20:29:59 65° ENE 20:33:52 20° SSE
ATLAS 3B R/B 3.2 20:25:39 10° S 20:31:21 32° ESE 20:37:04 10° NE
IGS 5A 3.7 20:29:39 25° SE 20:31:51 54° ENE 20:35:55 10° N
Cosmos 1238 Rocket 1.9 20:30:32 21° S 20:32:21 80° E 20:35:23 10° N
USA 234 4.0 20:29:00 11° E 20:35:02 46° NNE 20:41:13 10° NW
Cosmos 468 Rocket 4.0 20:30:51 10° NNW 20:36:12 89° WSW 20:39:42 22° SSE
CZ-2C R/B 4.3 20:31:49 10° N 20:36:20 60° WNW 20:40:45 10° SSW
Cosmos 1934 Rocket 4.5 20:30:17 10° SSW 20:36:35 64° WNW 20:42:55 10° N
Cosmos 1980 Rocket 3.5 20:32:15 10° NW 20:37:24 37° WSW 20:42:30 10° S
Cosmos 44 3.5 20:32:55 10° NNW 20:37:50 66° NE 20:40:36 27° SE
Resurs 01 Rocket 2.1 20:34:56 13° S 20:38:49 60° WSW 20:43:13 10° NNW
Iridium 4 Rocket 4.5 20:38:44 19° E 20:39:01 19° E 20:42:01 10° NE
Lacrosse 5 2.0 20:34:01 10° NW 20:39:03 66° SW 20:41:50 26° SSE
Cosmos 1602 3.6 20:37:46 16° S 20:40:48 80° E 20:44:46 10° N
Cosmos 1447 Rocket 4.5 20:34:27 10° N 20:40:50 76° E 20:45:25 20° SSE
CARTOSAT-1 4.4 20:40:31 27° ESE 20:41:59 35° ENE 20:45:57 10° N
Cosmos 1153 Rocket 4.5 20:36:52 13° S 20:42:18 63° E 20:48:26 10° NNE
GP-B 3.2 20:40:26 10° N 20:44:53 77° W 20:48:37 15° S
Cosmos 1933 Rocket 3.6 20:42:59 11° S 20:47:17 84° W 20:51:46 10° N
Cosmos 405 Rocket 3.1 20:50:04 10° SSW 20:53:40 59° WNW 20:57:25 10° N
Spot 2 Rocket 3.4 20:51:17 26° SSE 20:54:14 88° ENE 20:59:22 10° NNW
COSMOS 2428 4.5 20:50:28 10° N 20:54:43 21° NE 20:57:48 14° E
Cosmos 1814 Rocket 4.3 20:49:43 10° NNW 20:54:50 52° ENE 20:56:56 32° ESE
USA 238 DEB 4.3 20:49:34 10° WSW 20:56:06 57° NW 21:02:58 10° NE
USA 238 4.3 20:49:40 10° WSW 20:56:13 58° NW 21:03:04 10° NE
Cosmos 1515 3.6 20:54:35 10° N 20:58:25 90° W 20:59:36 43° S
Cosmos 1869 Rocket 3.8 20:57:44 39° SE 20:58:57 52° E 21:03:19 10° NNE
CENTAUR R/B 2.7 20:53:14 10° SW 20:59:12 78° NW 21:06:21 10° NE
Okean 1-7 2.9 20:55:57 10° N 21:00:17 85° E 21:01:51 39° SSE
Cosmos 1741 Rocket 4.1 20:57:02 10° SSW 21:02:17 79° WNW 21:07:37 10° NNE
Cosmos 1437 Rocket 2.9 21:02:22 10° NNW 21:06:09 67° W 21:07:19 41° SSW
OBJECT-B 3.8 21:05:04 10° WSW 21:06:29 12° W 21:07:54 10° WNW
Cosmos 1763 Rocket 4.1 21:05:13 10° NNW 21:10:24 53° WSW 21:13:14 26° S
Cosmos 1703 Rocket 3.7 21:06:16 10° NNW 21:10:35 67° W 21:12:20 34° SSW
H-2A R/B 4.1 21:07:04 10° N 21:11:07 54° WNW 21:14:44 13° SSW
Cosmos 1570 Rocket 4.0 21:07:34 10° NNW 21:12:57 89° E 21:14:58 40° SSE
Cosmos 2333 Rocket 3.4 21:07:58 10° NNW 21:13:03 30° NE 21:15:19 23° E
ATLAS 5 CENTAUR R/B 2.9 21:10:44 10° NNW 21:13:20 38° NE 21:14:58 28° E
Cosmos 2084 Rocket 4.2 21:09:21 10° WSW 21:13:27 51° NW 21:17:40 10° NNE
Landsat 7 4.3 21:15:20 28° SSW 21:17:41 55° W 21:22:22 10° NNW
SPOT 5 2.6 21:17:39 54° SE 21:18:29 70° ENE 21:22:56 10° N
SWARM C 4.5 21:15:27 10° N 21:18:41 83° NNW 21:18:41 83° NNW
SWARM A 4.2 21:15:33 10° N 21:18:54 79° W 21:18:54 79° W
Meteor 1-5 Rocket 4.3 21:18:36 34° S 21:21:15 69° E 21:27:08 10° NNE
Cosmos 2208 Rocket 3.9 21:19:10 10° NNW 21:24:26 87° WSW 21:25:57 48° SSE
Cosmos 1733 Rocket 4.0 21:29:41 33° ENE 21:29:41 33° ENE 21:33:02 10° NNE
ERBS 4.4 21:26:55 10° NNW 21:29:27 20° NNE 21:30:13 18° NE
Meteor 1-11 Rocket 3.8 21:31:46 48° SE 21:33:00 58° E 21:38:42 10° NNE
Lacrosse 4 Rocket 2.2 21:37:37 39° ENE 21:37:37 39° ENE 21:40:28 10° NE
Tsikada Rocket 4.3 21:31:05 10° N 21:37:15 51° ENE 21:38:46 42° ESE
Cosmos 2100 Rocket 4.0 21:36:57 28° SSW 21:40:21 77° W 21:46:32 10° N
USA 267 3.1 21:35:51 10° NE 21:42:26 86° SE 21:48:59 10° SW
SL-4 R/B 2.8 21:38:49 10° WNW 21:42:27 39° N 21:42:58 37° NNE
Meteor 2-4 Rocket 4.1 21:37:11 10° NNW 21:42:39 58° W 21:44:40 36° SSW
Cosmos 2219 Rocket 2.9 21:37:36 10° NNW 21:43:02 43° NE 21:44:23 36° E
Cosmos 540 Rocket 3.9 21:38:04 10° NNW 21:43:07 53° WSW 21:44:28 41° SSW
Cosmos 2173 Rocket 4.0 21:41:11 31° SSW 21:44:19 77° W 21:50:28 10° N
SL-16 R/B 3.3 21:41:04 10° NW 21:46:09 35° WSW 21:48:19 26° SW
Cosmos 1242 Rocket 3.6 21:48:15 10° N 21:50:53 41° NNE 21:50:53 41° NNE
SAR-Lupe-2 4.3 21:50:45 10° N 21:54:04 51° WNW 21:54:04 51° WNW
Meteor 1-23 Rocket 4.3 21:50:34 10° N 21:56:23 66° ENE 21:57:14 58° ESE
Cosmos 2322 3.6 21:50:51 10° NNW 21:56:32 73° ENE 21:57:25 61° ESE
Cosmos 1725 Rocket 3.9 21:55:18 52° SSE 21:56:53 77° E 22:03:14 10° NNE
Cosmos 1459 Rocket 4.3 21:53:46 28° SSW 21:57:15 64° WNW 22:03:36 10° N
ERS-1 Rocket 3.7 21:56:14 37° SW 21:57:30 45° W 22:02:20 10° NNW
Cosmos 1833 4.1 21:58:11 46° SSW 21:59:58 88° WNW 22:05:40 10° NNE
SL-08 R/B 4.3 21:59:40 55° S 22:01:07 84° E 22:07:15 10° N
Cosmos 2346 Rocket 4.4 21:55:58 10° N 22:02:02 79° W 22:03:32 53° S
Meteor 1-13 Rocket 4.4 21:56:45 10° NNW 22:02:13 64° W 22:03:24 51° SSW
Cosmos 1536 3.3 22:03:04 56° N 22:03:04 56° N 22:06:16 10° N
Cosmos 2322 Rocket 3.5 21:58:24 10° NW 22:03:22 31° WSW 22:05:04 26° SW
Cosmos 2016 Rocket 4.0 22:02:20 44° SSW 22:04:33 80° W 22:10:59 10° N
Cosmos 1378 Rocket 4.2 22:01:08 10° N 22:04:52 46° NE 22:04:52 46° NE
Cosmos 2221 Rocket 3.9 22:01:04 10° NNW 22:05:30 60° W 22:05:37 60° WSW
Terra 2.2 22:06:49 53° WSW 22:07:14 55° W 22:11:56 10° NNW
Okean 3 4.3 22:04:25 10° NNW 22:08:30 43° W 22:08:38 43° W
COSMOS 2487 4.2 22:12:29 29° N 22:12:29 29° N 22:14:23 10° NNE
Cosmos 2333 4.1 22:05:38 10° NNW 22:11:27 88° WSW 22:12:06 72° SSE
Cosmos 1666 3.7 22:12:27 44° NW 22:12:27 44° NW 22:15:28 10° N
Cosmos 2360 Rocket 2.7 22:07:19 10° NW 22:12:44 48° WSW 22:13:33 44° SW
USA 234 3.1 22:16:20 58° SE 22:17:48 81° SW 22:24:23 10° NW
Iridium 4 Rocket 4.1 22:18:29 36° W 22:18:46 36° W 22:22:38 10° NNW
Lacrosse 5 4.2 22:19:13 10° W 22:21:01 12° WSW 22:21:01 12° WSW
ATLAS 3B R/B 3.0 22:15:09 10° SW 22:21:40 60° NW 22:28:16 10° NE
MOS 1-B Rocket 3.7 22:17:22 10° NNE 22:22:59 72° ESE 22:23:10 71° ESE
Cosmos 2297 Rocket 4.1 22:32:11 17° ENE 22:32:11 17° ENE 22:34:17 10° NE
Cosmos 1743 4.3 22:35:21 33° NNE 22:35:21 33° NNE 22:37:36 10° N
Cosmos 2233 Rocket 3.9 22:34:08 68° SSW 22:35:03 86° W 22:41:26 10° N
Thor Agena Rocket 4.0 22:30:53 10° NNE 22:35:03 51° ENE 22:35:03 51° ENE
Cosmos 1980 4.4 22:30:56 10° NNW 22:36:19 42° NE 22:36:58 41° ENE
COSMOS 2428 2.6 22:33:59 10° NNW 22:39:45 86° WSW 22:39:48 86° SW
Cosmos 44 Rocket 3.6 22:38:39 10° NW 22:42:56 63° WNW 22:42:56 63° WNW
Cosmos 2237 Rocket 2.8 22:38:41 10° NNW 22:44:06 45° NE 22:44:34 44° ENE
Cosmos 1464 Rocket 4.4 22:46:12 46° E 22:46:12 46° E 22:51:52 10° NNE
Cosmos 1271 Rocket 4.3 22:42:16 10° NNW 22:44:32 34° NNW 22:44:32 34° NNW
NOSS 0 Rocket 3.9 22:45:07 10° NNW 22:51:23 74° ENE 22:51:50 71° E
Cosmos 2333 Rocket 2.6 22:52:00 10° NW 22:57:19 51° W 22:57:19 51° W
Geosat 4.1 22:58:12 71° NNW 22:58:12 71° NNW 23:02:41 10° NNW
Cosmos 1503 Rocket 4.1 22:58:15 74° NNW 22:58:15 74° NNW 23:03:14 10° NNE
Meteor 2-11 Rocket 4.4 23:06:27 67° WSW 23:06:52 70° WNW 23:12:59 10° N
DNEPR-1 R/B 4.4 23:09:03 10° NNW 23:14:42 57° NE 23:14:42 57° NE
Lacrosse 4 Rocket 3.7 23:13:52 17° WNW 23:15:20 20° NW 23:18:29 10° N
ALOS 2 3.6 23:17:00 44° NNW 23:17:00 44° NNW 23:20:02 10° NNW
Cosmos 773 Rocket 4.3 23:13:21 10° NNW 23:17:38 62° N 23:17:38 62° N
Cosmos 2034 Rocket 4.2 23:19:27 59° E 23:19:27 59° E 23:25:31 10° NNE
Cosmos 1072 Rocket 4.3 23:20:38 87° NNE 23:20:38 87° NNE 23:26:42 10° N
Cosmos 2227 Rocket 3.2 23:22:00 36° ENE 23:22:00 36° ENE 23:25:53 10° NE
Cosmos 1891 Rocket 4.4 23:21:57 86° S 23:22:06 89° E 23:28:31 10° N
USA 267 4.2 23:19:00 10° NE 23:25:08 45° NNW 23:31:16 10° W
Cosmos 2219 Rocket 3.3 23:21:48 10° NW 23:26:05 32° W 23:26:05 32° W
Cosmos 1538 Rocket 4.4 23:31:17 10° NNW 23:35:35 60° N 23:35:35 60° N
Cosmos 1607 4.0 23:40:25 10° NW 23:46:54 72° NE 23:47:26 68° E
